Location: ??????
(38.0131°N, 23.7723°E)
Time: 18:17:55
(UTC+00:00)

Okean-O - Pass Details

Date: 23 May 2022
Orbit: 638 x 640 km, 98.1° (Epoch: 27 June)

Event Time Altitude Azimuth Distance (km) Brightness Sun altitude
Rises 19:09:02 0° 207° (SSW) 2,930 5.9 -15.9°
Reaches altitude 10° 19:12:00 10° 228° (SW) 2,026 5.2 -16.3°
Maximum altitude 19:14:43 16° 267° (W) 1,664 5.3 -16.7°
Drops below altitude 10° 19:17:28 10° 305° (NW) 2,035 6.5 -17.1°
Sets 19:20:28 0° 327° (NNW) 2,950 7.6 -17.5°
